Regional Weather Roundup
Issued by NWS Burlington, VT

Home | Current Version | Previous Version | Text Only | Print | Product List | Glossary On
Versions: 1 2 3 4 5 6 7 8 9 10 11 12 13 14 15 16 17 18 19 20 21 22 23 24 25 26 27 28 29 30 31 32 33 34 35 36 37 38 39 40 41 42 43 44 45 46 47 48 49 50
501
ASUS41 KBTV 280130
RWRBTV
VERMONT REGIONAL WEATHER ROUNDUP
NATIONAL WEATHER SERVICE BURLINGTON VT
900 PM EDT MON MAR 27 2017

NOTE: "FAIR" INDICATES FEW OR NO CLOUDS BELOW 12,000 FEET WITH NO
SIGNIFICANT WEATHER AND/OR OBSTRUCTIONS TO VISIBILITY.

* THESE REPORTS ARE NOT UNDER NWS QUALITY CONTROL AND/OR DO NOT
  REPORT WEATHER SUCH AS PRECIPITATION AND FOG.

VTZ001>019-280200-
_____VERMONT_____


CITY           SKY/WX    TMP DP  RH WIND       PRES   REMARKS
BURLINGTON     CLOUDY    38  37  97 CALM      29.96R FOG
MONTPELIER     LGT RAIN  35  34  96 S5        30.01S WCI  31
MORRISVILLE    LGT RAIN  35  32  88 S5        29.99R FOG     WCI  31
ST. JOHNSBURY*   N/A     36  35  96 MISG      29.98S
LYNDONVILLE*   CLOUDY    34  34  98 SE6       30.00R WCI  29
MIDDLEBURY*    DRIZZLE   37  37  99 CALM      29.98R
RUTLAND*       CLOUDY    38  34  85 SE12      29.99R WCI  30
SPRINGFIELD    CLOUDY    35  33  92 CALM      30.03R FOG
HIGHGATE*      LGT RAIN  40  39  99 S8        29.95R
NEWPORT*       CLOUDY    35  34  94 S7        29.97S WCI  30
BENNINGTON     CLOUDY    40  37  89 VRB3      29.97S
ISLAND POND*     N/A     34 N/A N/A E2          N/A
GALLUP MILLS*    N/A     32 N/A N/A MISG        N/A
UNION VILLAGE*   N/A     34 N/A N/A MISG        N/A
MT. MANSFIELD*   N/A     37 N/A N/A W22         N/A  WCI  27

_____LAKE CHAMPLAIN_____


CITY           SKY/WX    TMP DP  RH WIND       PRES   REMARKS
BURTON ISLAND*   N/A     37  37 100 S12         N/A  WCI  30
COLCHESTER RF*   N/A     37  37 100 S17         N/A  WCI  28
DIAMOND ISL*     N/A     39  37  93 S10         N/A

$$

NYZ007-026>031-035-052-083-087-280200-
_____NORTHERN NEW YORK_____


CITY           SKY/WX    TMP DP  RH WIND       PRES   REMARKS
PLATTSBURGH    CLOUDY    37  36  96 S6        29.94R
SARANAC LAKE   CLOUDY    38  38 100 SW3       29.90S FOG
MASSENA        FOG       36  36 100 CALM      29.93S VSB 1/4
POTSDAM*       RAIN      45  45 100 CALM      29.91S VSB 1/4
STARK FALLS*     N/A     39 N/A N/A SE7         N/A
WATERTOWN      CLOUDY    48  47  96 SW5       29.91R
FT DRUM        CLOUDY    41  40  95 SE9       29.90R
ALBANY         CLOUDY    42  38  85 CALM      30.00R
GLENS FALLS    FOG       37  35  92 CALM      29.98F VSB 1/2

$$
NHZ002-005-011-280200-
_____NEW HAMPSHIRE_____


CITY           SKY/WX    TMP DP  RH WIND       PRES   REMARKS
LEBANON        CLOUDY    35  34  96 CALM      30.01R
KEENE          CLOUDY    37  34  89 CALM      30.03R
MT WASHINGTON  FOG       34  34 100 W36         N/A  VSB 0   WCI  19
PLYMOUTH       CLOUDY    34  33  96 CALM      30.04R
WHITEFIELD     CLOUDY    35  29  78 E5        29.98S WCI  31

$$

_____REGIONAL QUEBEC LOCATIONS_____


CITY           SKY/WX    TMP DP  RH WIND       PRES   REMARKS
MONTREAL       DRIZZLE   37  37 100 SE3       29.93R FOG
QUEBEC CITY    FRZ RAIN  30  28  93 E10G21    30.02S FOG     WCI  21
SHERBROOKE     CLOUDY    36  32  87 SE7       29.96R WCI  30

_____REGIONAL ONTARIO LOCATIONS_____


CITY           SKY/WX    TMP DP  RH WIND       PRES   REMARKS
OTTAWA         FOG       34  34 100 NE5       29.90S VSB 3/8 WCI  30

______KEY______
VSB  - VISIBILITY IN MILES
WCI  - WIND CHILL INDEX
HX   - HEAT INDEX
$$
NNNN




USA.gov is the U.S. government's official web portal to all federal, state and local government web resources and services.